Stations météo

Publicité
Cherbourg, France (7024): Température de l'air & dewpoint: 16.11.2018 11:00:00 - 22.11.2018 11:00:00 (CET)Cherbourg, France (7024): Température de l'air 5cm: 16.11.2018 11:00:00 - 22.11.2018 11:00:00 (CET)Cherbourg, France (7024): Température de l'air -20cm & Température de l'air -100cm: 16.11.2018 11:00:00 - 22.11.2018 11:00:00 (CET)Cherbourg, France (7024): Vitesse du vent & gusts: 16.11.2018 11:00:00 - 22.11.2018 11:00:00 (CET)Cherbourg, France (7024): Direction du vent: 16.11.2018 11:00:00 - 22.11.2018 11:00:00 (CET)Cherbourg, France (7024): reduced air pressure: 16.11.2018 11:00:00 - 22.11.2018 11:00:00 (CET)Cherbourg, France (7024): visibility: 16.11.2018 11:00:00 - 22.11.2018 11:00:00 (CET)Cherbourg, France (7024): Ensoleillement: 16.11.2018 11:00:00 - 22.11.2018 11:00:00 (CET)Cherbourg, France (7024): Quantités de précipitations: 16.11.2018 11:00:00 - 22.11.2018 11:00:00 (CET)
Date & Time tt [°C] td [°C] tt 5cm [°C] tt -20cm [°C] tt -100cm [°C] ff [km/h] ff [knt] fx [km/h] fx [knt] dd ppp [hPa] vv [km] sd [min] rr [mm]
22.11.2018 11:00:00 5,2 2,7 4,8 7,9 11,0 25 14 39 21 ESE 1015,3 7 0 -
22.11.2018 10:00:00 5,1 2,1 4,7 7,9 11,0 24 13 40 22 E 1015,7 9 0 0,0
22.11.2018 09:00:00 4,9 1,7 3,9 7,9 11,1 26 14 38 20 E 1015,6 10 0 0,0
22.11.2018 08:00:00 4,1 1,6 2,0 7,9 11,1 19 10 29 16 ESE 1015,3 6 0 0,0
22.11.2018 07:00:00 2,7 0,9 1,3 8,0 11,1 16 8 24 13 ESE 1015,4 3,7 0 0,2
22.11.2018 06:00:00 2,0 -0,1 0,5 8,0 11,1 13 7 21 11 ESE 1015,9 7 0 0,0
22.11.2018 05:00:00 1,4 -1,0 0,2 8,0 11,1 13 7 21 11 SE 1016,0 8 0 0,0
22.11.2018 04:00:00 1,1 -0,8 -0,4 8,1 11,1 12 7 19 10 SE 1016,1 6 0 0,0
22.11.2018 03:00:00 0,8 -1,4 -0,4 8,1 11,1 14 7 19 10 SE 1016,6 7 0 0,0
22.11.2018 02:00:00 0,9 -1,5 -0,9 8,2 11,1 12 6 18 10 SSE 1016,8 8 0 0,0
22.11.2018 01:00:00 0,1 -2,9 -1,0 8,2 11,1 10 6 14 8 SE 1017,0 13 0 0,0
22.11.2018 00:00:00 0,6 -2,5 -0,6 8,3 11,1 10 5 14 8 SE 1016,6 11 0 0,0
21.11.2018 23:00:00 0,8 -2,4 -0,3 8,3 11,2 10 5 18 10 SE 1016,2 9 0 0,0
21.11.2018 22:00:00 1,5 -1,6 0,6 8,4 11,2 13 7 23 13 SE 1016,2 10 0 0,0
21.11.2018 21:00:00 2,3 -2,0 1,5 8,4 11,2 18 10 25 13 SSE 1016,1 13 0 0,0
21.11.2018 20:00:00 2,7 -1,7 1,8 8,4 11,2 18 10 26 14 SSE 1015,7 13 0 0,0
21.11.2018 19:00:00 2,9 -0,9 1,6 8,4 11,2 14 8 21 11 SSE 1015,2 12 0 0,0
21.11.2018 18:00:00 2,9 -0,6 2,0 8,4 11,2 14 8 21 12 SSE 1014,6 10 0 0,0
21.11.2018 17:00:00 4,6 0,0 4,0 8,4 11,2 16 8 26 14 SSE 1013,7 17 36 0,0
21.11.2018 16:00:00 6,2 0,5 8,2 8,3 11,2 16 9 27 15 SSE 1012,9 18 60 0,0
21.11.2018 15:00:00 6,7 0,6 8,9 8,2 11,2 16 9 27 15 SSE 1012,3 18 60 0,0
21.11.2018 14:00:00 6,5 0,4 8,0 8,2 11,3 19 11 34 18 SSE 1011,9 17 60 0,0
21.11.2018 13:00:00 5,6 0,4 7,1 8,2 11,3 23 12 32 18 SSE 1011,7 14 60 0,0
21.11.2018 12:00:00 4,8 0,0 4,8 8,2 11,3 19 11 34 18 S 1011,2 12 60 0,0
21.11.2018 11:00:00 2,9 -1,7 2,4 8,3 11,3 21 12 33 18 S 1010,6 12 57 0,0
21.11.2018 10:00:00 1,1 -2,1 0,3 8,4 11,3 17 9 31 17 SSE 1009,6 10 1 0,0
21.11.2018 09:00:00 0,8 -2,3 -0,5 8,4 11,3 20 11 32 17 SSE 1008,6 9 0 0,0
21.11.2018 08:00:00 0,1 -2,3 -0,5 8,5 11,3 17 9 30 16 SSE 1007,7 7 0 0,0
21.11.2018 07:00:00 0,1 -2,0 -0,5 8,5 11,3 20 11 33 18 SSE 1006,7 7 0 0,0
21.11.2018 06:00:00 0,5 -1,4 -0,1 8,6 11,3 21 11 31 17 S 1006,2 5 0 0,0
21.11.2018 05:00:00 0,8 -1,0 0,3 8,6 11,4 20 11 32 18 SSE 1005,5 5 0 0,0
21.11.2018 04:00:00 1,7 -0,2 1,3 8,6 11,4 16 9 24 13 S 1005,1 5 0 0,0
21.11.2018 03:00:00 1,7 -0,1 1,2 8,7 11,3 14 7 23 12 S 1004,9 5 0 0,2
21.11.2018 02:00:00 1,6 0,0 0,9 8,7 11,4 16 9 23 13 S 1004,9 5 0 0,2
21.11.2018 01:00:00 1,3 -0,6 0,8 8,7 11,4 10 5 19 11 S 1004,9 6 0 0,0
21.11.2018 00:00:00 1,6 -0,2 1,4 8,7 11,4 16 8 22 12 S 1004,6 5 0 0,0
20.11.2018 23:00:00 1,7 0,4 1,5 8,8 11,4 13 7 19 10 SSE 1004,5 3,5 0 0,0
20.11.2018 22:00:00 1,8 0,5 1,5 8,8 11,4 10 6 16 8 S 1004,4 3,1 0 0,0
20.11.2018 21:00:00 1,8 0,5 1,2 8,8 11,4 11 6 16 9 SSE 1004,0 3,7 0 0,0
20.11.2018 20:00:00 2,1 1,1 1,8 8,9 11,4 10 5 15 8 S 1003,7 2,4 0 0,0
20.11.2018 19:00:00 2,1 0,5 1,7 8,9 11,4 5 3 8 4 S 1003,6 6 0 0,2
20.11.2018 18:00:00 2,0 0,7 1,6 8,9 11,4 4 2 16 9 SSW 1003,6 4,2 0 0,0
20.11.2018 17:00:00 1,9 0,4 1,3 8,9 11,4 9 5 14 8 SW 1003,4 4,2 0 0,8
20.11.2018 16:00:00 1,9 0,1 1,6 9,0 11,4 5 3 16 9 SSW 1003,6 3,1 0 1,4
20.11.2018 15:00:00 3,1 1,5 3,1 9,0 11,5 8 4 13 7 S 1003,5 4,0 0 0,6
20.11.2018 14:00:00 3,8 1,8 3,6 9,0 11,4 5 3 17 9 SSE 1003,6 8 0 0,6
20.11.2018 13:00:00 3,9 1,6 4,2 9,0 11,5 15 8 30 16 ESE 1004,3 4,9 17 0,0
20.11.2018 12:00:00 3,6 2,0 2,8 9,0 11,5 9 5 28 15 E 1004,9 6 3 2,1
20.11.2018 11:00:00 3,8 2,0 2,9 9,1 11,5 19 10 34 18 ESE 1005,4 11 3 1,4
20.11.2018 10:00:00 3,1 1,6 1,3 9,1 11,5 18 10 39 21 E 1005,7 11 0 2,6
20.11.2018 09:00:00 3,9 1,6 3,1 9,1 11,5 19 11 37 20 E 1005,7 10 0 0,8
20.11.2018 08:00:00 3,6 1,3 2,9 9,2 11,5 12 7 35 19 E 1005,9 20 0 0,2
20.11.2018 07:00:00 3,9 1,6 2,4 9,2 11,5 22 12 39 21 E 1006,4 11 0 1,0
20.11.2018 06:00:00 3,7 1,1 2,9 9,2 11,5 20 11 45 24 E 1006,7 10 0 0,8
20.11.2018 05:00:00 4,9 0,1 2,9 9,2 11,5 26 14 53 28 ENE 1006,9 35 0 0,4
20.11.2018 04:00:00 4,4 0,2 2,7 9,3 11,5 25 14 48 26 ENE 1007,7 18 0 0,6
20.11.2018 03:00:00 4,0 0,5 2,9 9,3 11,5 18 10 45 24 E 1008,5 18 0 0,4
20.11.2018 02:00:00 3,6 0,3 1,5 9,4 11,5 10 6 59 32 E 1009,1 51 0 0,2
20.11.2018 01:00:00 3,0 -0,1 1,9 9,4 11,5 13 7 68 37 E 1009,7 50 0 0,4
20.11.2018 00:00:00 5,9 -0,2 3,8 9,4 11,5 25 13 45 24 E 1010,3 57 0 0,0
19.11.2018 23:00:00 5,6 0,9 3,9 9,5 11,6 26 14 52 28 E 1010,8 16 0 0,2
19.11.2018 22:00:00 6,5 0,0 5,2 9,5 11,6 25 13 50 27 ENE 1010,9 59 0 0,0
19.11.2018 21:00:00 5,8 0,5 4,3 9,5 11,6 19 10 54 29 E 1011,7 60 0 0,0
19.11.2018 20:00:00 7,0 -0,5 5,8 9,5 11,6 24 13 55 30 ENE 1012,0 60 0 0,0
19.11.2018 19:00:00 7,1 -0,6 4,7 9,5 11,6 29 16 53 29 E 1012,4 60 0 0,0
19.11.2018 18:00:00 5,5 0,7 3,9 9,5 11,6 30 16 66 35 E 1013,7 25 0 0,0
19.11.2018 17:00:00 6,2 1,5 4,6 9,5 11,6 31 17 55 30 E 1014,0 18 0 0,2
19.11.2018 16:00:00 6,9 0,6 6,5 9,5 11,6 27 15 51 28 E 1014,4 50 7 0,0
19.11.2018 15:00:00 7,9 1,3 6,4 9,6 11,6 29 16 52 28 E 1015,0 20 21 0,0
19.11.2018 14:00:00 6,5 1,0 6,1 9,5 11,6 30 16 56 31 E 1016,0 34 7 0,0
19.11.2018 13:00:00 6,1 1,0 6,0 9,6 11,6 31 17 56 31 E 1016,6 25 0 0,0
19.11.2018 12:00:00 6,1 1,0 5,9 9,6 11,6 36 19 63 34 E 1017,4 20 9 0,0
19.11.2018 11:00:00 6,0 1,1 6,0 9,6 11,6 34 19 63 34 E 1017,6 15 8 0,0
19.11.2018 10:00:00 6,4 1,1 5,6 9,6 11,6 24 13 49 26 E 1017,9 15 8 0,0
19.11.2018 09:00:00 6,0 0,7 5,2 9,7 11,6 30 16 51 28 ENE 1017,9 16 0 0,0
19.11.2018 08:00:00 5,9 0,4 4,7 9,8 11,6 29 15 47 25 ENE 1018,0 19 0 0,0
19.11.2018 07:00:00 6,0 0,5 5,0 9,8 11,6 26 14 44 24 ENE 1018,2 20 0 0,0
19.11.2018 06:00:00 6,3 1,0 5,0 9,8 11,6 26 14 39 21 E 1018,4 19 0 0,0
19.11.2018 05:00:00 6,3 0,8 5,2 9,9 11,7 22 12 39 21 E 1018,6 20 0 0,0
19.11.2018 04:00:00 6,2 0,9 5,3 9,9 11,6 19 10 37 20 E 1019,1 18 0 0,0
19.11.2018 03:00:00 6,9 1,6 5,7 9,9 11,6 22 12 36 20 E 1019,6 17 0 0,0
19.11.2018 02:00:00 7,1 2,8 6,2 10,0 11,7 20 11 40 22 E 1019,9 13 0 0,0
19.11.2018 01:00:00 7,5 3,2 6,7 10,0 11,7 21 12 37 20 E 1020,3 13 0 0,0
19.11.2018 00:00:00 7,8 3,1 6,9 9,9 11,6 21 11 42 23 E 1020,7 14 0 0,0
18.11.2018 23:00:00 7,9 3,2 6,9 10,0 11,6 18 10 37 20 E 1020,9 16 0 0,0
18.11.2018 22:00:00 8,3 3,9 7,4 10,0 11,7 22 12 41 22 E 1020,7 16 0 0,0
18.11.2018 21:00:00 8,9 3,9 7,9 10,0 11,7 24 13 45 25 E 1021,0 19 0 0,0
18.11.2018 20:00:00 9,0 4,6 7,7 10,0 11,7 21 11 43 23 E 1021,2 18 0 0,0
18.11.2018 19:00:00 8,7 4,5 7,5 10,1 11,7 25 13 47 26 E 1021,3 17 0 0,0
18.11.2018 18:00:00 8,4 3,8 7,3 10,0 11,7 24 13 46 25 E 1021,6 18 0 0,0
18.11.2018 17:00:00 8,1 3,4 7,6 10,0 11,7 27 15 50 27 E 1021,5 20 39 0,0
18.11.2018 16:00:00 8,4 3,0 9,3 10,0 11,7 27 15 47 26 E 1021,8 20 60 0,0
18.11.2018 15:00:00 8,4 2,2 9,9 10,0 11,7 30 16 51 27 E 1021,8 20 60 0,0
18.11.2018 14:00:00 8,5 2,5 9,5 10,0 11,7 31 17 53 29 E 1022,2 20 60 0,0
18.11.2018 13:00:00 8,1 1,9 9,3 9,9 11,7 29 16 49 27 E 1022,7 19 60 0,0
18.11.2018 12:00:00 7,7 1,5 9,0 9,9 11,7 29 15 49 26 E 1023,0 19 60 0,0
18.11.2018 11:00:00 7,6 1,6 8,3 10,0 11,7 29 16 45 24 E 1023,6 19 60 0,0
18.11.2018 10:00:00 7,4 1,9 5,9 10,0 11,7 28 15 41 22 E 1023,5 20 60 0,0
18.11.2018 09:00:00 6,5 2,0 4,8 10,1 11,7 22 12 32 17 E 1023,6 20 5 0,0
18.11.2018 08:00:00 5,9 2,4 3,9 10,1 11,7 20 11 29 16 E 1023,2 19 0 0,0
18.11.2018 07:00:00 5,9 2,2 4,8 10,2 11,7 19 11 30 16 E 1023,1 19 0 0,0
18.11.2018 06:00:00 6,4 2,5 5,5 10,2 11,7 23 12 33 18 E 1022,9 16 0 0,0
18.11.2018 05:00:00 6,6 2,9 5,3 10,2 11,7 21 11 33 18 E 1022,7 16 0 0,0
18.11.2018 04:00:00 6,4 2,5 5,5 10,3 11,7 22 12 38 21 ESE 1022,9 18 0 0,0
18.11.2018 03:00:00 6,4 2,3 5,2 10,4 11,7 24 13 36 19 E 1023,2 17 0 0,0
18.11.2018 02:00:00 6,5 1,8 5,7 10,4 11,7 22 12 42 23 ESE 1023,0 19 0 0,0
18.11.2018 01:00:00 7,1 1,8 6,2 10,4 11,7 25 14 45 25 ESE 1023,0 20 0 0,0
18.11.2018 00:00:00 7,7 1,7 6,7 10,5 11,7 29 15 53 28 ESE 1022,8 20 0 0,0
17.11.2018 23:00:00 7,6 1,9 6,4 10,6 11,7 35 19 54 29 ESE 1022,7 20 0 0,0
17.11.2018 22:00:00 7,4 2,5 6,4 10,6 11,7 29 16 61 33 ESE 1022,9 18 0 0,0
17.11.2018 21:00:00 7,1 2,4 6,4 10,7 11,7 32 17 56 30 ESE 1022,9 16 0 0,0
17.11.2018 20:00:00 7,5 3,0 6,8 10,7 11,7 31 17 50 27 E 1022,3 14 0 0,0
17.11.2018 19:00:00 7,8 4,2 6,3 10,8 11,7 27 15 39 21 E 1022,2 12 0 0,0
17.11.2018 18:00:00 7,2 4,0 6,3 10,8 11,7 19 10 30 16 E 1021,9 9 0 0,0
17.11.2018 17:00:00 7,3 4,3 7,0 10,8 11,7 22 12 41 22 E 1022,2 8 41 0,0
17.11.2018 16:00:00 7,4 3,8 7,8 10,8 11,7 23 12 41 22 E 1022,3 8 58 0,0
17.11.2018 15:00:00 7,4 4,4 7,6 10,8 11,7 28 15 45 25 E 1022,4 6 50 0,0
17.11.2018 14:00:00 7,2 4,2 8,2 10,8 11,7 33 18 47 25 E 1022,4 5 52 0,0
17.11.2018 13:00:00 7,1 4,7 7,8 10,8 11,7 29 16 49 27 E 1022,8 6 38 0,0
17.11.2018 12:00:00 6,9 4,9 7,2 10,8 11,7 31 17 46 25 E 1023,2 5 0 0,0
17.11.2018 11:00:00 6,5 4,8 6,9 10,9 11,7 27 15 42 23 E 1023,7 3,8 0 0,0
17.11.2018 10:00:00 6,3 4,9 6,8 10,9 11,7 24 13 40 22 E 1023,2 3,3 0 0,0
17.11.2018 09:00:00 6,7 6,1 6,9 10,9 11,7 23 12 36 20 E 1023,4 2,8 0 0,0
17.11.2018 08:00:00 7,5 6,9 7,5 11,0 11,7 21 11 36 20 E 1023,2 0,2 0 0,0
17.11.2018 07:00:00 7,9 7,3 7,9 11,0 11,7 20 11 34 18 E 1022,9 0,1 0 0,0
17.11.2018 06:00:00 8,1 7,5 8,1 11,0 11,7 19 10 38 20 E 1022,8 0,1 0 0,0
17.11.2018 05:00:00 8,2 7,6 8,1 11,0 11,7 25 13 37 20 E 1022,9 0,1 0 0,0
17.11.2018 04:00:00 8,4 7,8 8,3 11,1 11,7 24 13 36 19 E 1023,5 0,1 0 0,0
17.11.2018 03:00:00 8,6 8,0 8,5 11,1 11,7 21 11 35 19 E 1023,8 0,1 0 0,0
17.11.2018 02:00:00 8,7 8,1 8,7 11,1 11,7 24 13 35 19 E 1023,9 0,1 0 0,0
17.11.2018 01:00:00 9,1 8,5 9,1 11,1 11,7 21 12 36 19 ESE 1023,8 0,3 0 0,0
17.11.2018 00:00:00 9,6 9,0 9,5 11,1 11,7 20 11 30 16 ESE 1023,7 0,3 0 0,0
16.11.2018 23:00:00 9,8 9,2 9,8 11,1 11,7 19 10 33 18 ESE 1023,5 0,5 0 0,0
16.11.2018 22:00:00 10,2 9,6 10,3 11,1 11,7 18 10 31 17 ESE 1023,3 2,0 0 0,0
16.11.2018 21:00:00 10,5 9,9 10,3 11,1 11,7 19 11 34 18 ESE 1023,4 2,0 0 0,0
16.11.2018 20:00:00 10,4 9,8 10,0 11,1 11,7 21 11 31 17 ESE 1023,4 1,3 0 0,0
16.11.2018 19:00:00 10,1 9,5 9,9 11,1 11,7 19 10 31 17 ESE 1023,5 0,3 0 0,0
16.11.2018 18:00:00 10,0 9,4 9,9 11,1 11,7 18 10 32 17 ESE 1023,3 0,3 0 0,0
16.11.2018 17:00:00 10,0 9,4 10,0 11,0 11,7 19 10 31 17 E 1023,2 0,1 0 0,0
16.11.2018 16:00:00 10,3 9,7 10,5 11,0 11,7 21 11 30 16 E 1023,1 0,2 0 0,0
16.11.2018 15:00:00 10,4 9,8 10,8 11,0 11,7 18 10 26 14 ESE 1023,2 0,1 0 0,0
16.11.2018 14:00:00 10,7 10,1 11,3 11,0 11,7 19 10 25 14 E 1023,5 0,1 0 0,0
16.11.2018 13:00:00 11,2 10,6 11,0 10,9 11,7 17 9 25 13 ESE 1023,8 0,2 0 0,0
16.11.2018 12:00:00 10,9 10,3 10,8 10,9 11,7 17 9 24 13 ESE 1024,2 0,1 0 0,0
16.11.2018 11:00:00 10,3 9,5 10,4 10,9 11,7 16 9 25 13 ESE 1024,3 0,1 0 0,0

tt = Température de l'air
td = dewpoint
tt 5cm = Température de l'air 5cm
tt -20cm = Température de l'air -20cm
tt -100cm = Température de l'air -100cm
ff = Vitesse du vent
fx = gusts
dd = Direction du vent
ppp = reduced air pressure
vv = visibility
sd = Ensoleillement
rr = Quantités de précipitations

stations d'obs. à proximité